Scappoose, OR

10:29 PM PST on February 08, 2016 (GMT -0800)
Scappoose Industrial

Weather History for KSPB - October, 2012

Change the Weather History Date:

Wednesday, October 10, 2012

  Actual Average Record
Temperature  
Mean Temperature 52 °F -  
Max Temperature 64 °F - 75 °F (2006)
Min Temperature 38 °F - 33 °F (2006)
Degree Days  
Heating Degree Days 14    
Month to date heating degree days 87  
Since 1 July heating degree days 245  
Cooling Degree Days 0    
Month to date cooling degree days 6  
Year to date cooling degree days 245  
Growing Degree Days 2 (Base 50)    
Moisture  
Dew Point 43 °F    
Average Humidity 78    
Maximum Humidity 100    
Minimum Humidity 56    
Precipitation  
Precipitation 0.00 in - 0.38 in (2001)
Month to date precipitation 0.00  
Year to date precipitation 31.00  
Sea Level Pressure  
Sea Level Pressure 30.00 in    
Wind  
Wind Speed 3 mph (NNW)    
Max Wind Speed 12 mph    
Max Gust Speed 15 mph    
Visibility 6 miles    
Events Fog    
T = Trace of Precipitation, MM = Missing Value Source: NWS Daily Summary

Daily Weather History Graph

Daily Weather History Graph

Search for Another Location

Airport or City:

Trip Planner

Search our weather history database for the weather conditions in past years. The results will help you decide how hot, cold, wet, or windy it might be!

Date:

Astronomy

Oct. 10, 2012 Rise Set
Actual Time 7:22 AM PDT 6:33 PM PDT
Civil Twilight 6:52 AM PDT 7:03 PM PDT
Nautical Twilight 6:17 AM PDT 7:37 PM PDT
Astronomical Twilight 5:43 AM PDT 8:12 PM PDT
Moon 1:49 AM PDT (10/10) 3:52 PM PDT (10/10)
Length of Visible Light 12h 11m
Length of Day
11h 11m
Waning Crescent, 26% of the Moon is Illuminated
Oct 10
Waning Crescent
Oct 15
New
Oct 21
First Quarter
Oct 29
Full
Nov 6
Last Quarter

Hourly Weather History & Observations

Time (PDT) Temp. Dew Point Humidity Pressure Visibility Wind Dir Wind Speed Gust Speed Precip Events Conditions
12:53 AM 44.1 °F 41.0 °F 89% 30.02 in 10.0 mi Calm Calm - N/A   Clear
1:53 AM 43.0 °F 41.0 °F 93% 30.02 in 10.0 mi Calm Calm - N/A   Clear
2:53 AM 42.1 °F 39.9 °F 92% 30.02 in 9.0 mi Calm Calm - N/A   Clear
3:53 AM 43.0 °F 41.0 °F 93% 30.02 in 10.0 mi Calm Calm - N/A   Clear
4:53 AM 41.0 °F 39.0 °F 93% 30.02 in 10.0 mi Calm Calm - N/A   Clear
5:03 AM 41.0 °F 39.2 °F 93% 30.02 in 2.0 mi Calm Calm - N/A   Clear
5:12 AM 41.0 °F 39.2 °F 93% 30.02 in 7.0 mi Calm Calm - N/A   Clear
5:49 AM 39.2 °F 37.4 °F 93% 30.02 in 1.8 mi Calm Calm - N/A   Clear
5:53 AM 39.9 °F 39.0 °F 97% 30.02 in 0.8 mi Calm Calm - N/A   Clear
5:58 AM 39.2 °F 37.4 °F 93% 30.02 in 0.5 mi Calm Calm - N/A Fog Fog
6:09 AM 39.2 °F 37.4 °F 93% 30.02 in 1.5 mi Calm Calm - N/A   Partly Cloudy
6:11 AM 39.2 °F 37.4 °F 93% 30.02 in 4.0 mi Calm Calm - N/A   Partly Cloudy
6:31 AM 39.2 °F 37.4 °F 93% 30.03 in 1.5 mi Calm Calm - N/A   Clear
6:42 AM 39.2 °F 37.4 °F 93% 30.03 in 4.0 mi Calm Calm - N/A   Clear
6:53 AM 41.0 °F 39.0 °F 93% 30.03 in 10.0 mi Calm Calm - N/A   Scattered Clouds
7:04 AM 39.2 °F 37.4 °F 93% 30.03 in 9.0 mi Calm Calm - N/A   Mostly Cloudy
7:53 AM 41.0 °F 39.9 °F 96% 30.04 in 1.0 mi Calm Calm - N/A   Mist
8:00 AM 42.8 °F 41.0 °F 93% 30.03 in 0.5 mi Calm Calm - N/A Fog Fog
8:08 AM 42.8 °F 41.0 °F 93% 30.03 in 2.0 mi Calm Calm - N/A   Overcast
8:15 AM 42.8 °F 42.8 °F 100% 30.03 in 5.0 mi Calm Calm - N/A   Overcast
8:53 AM 45.0 °F 44.1 °F 97% 30.04 in 4.0 mi Calm Calm - N/A   Overcast
9:36 AM 46.4 °F 44.6 °F 93% 30.05 in 1.5 mi Calm Calm - N/A   Overcast
9:53 AM 46.9 °F 45.0 °F 93% 30.05 in 2.5 mi Calm Calm - N/A   Overcast
10:01 AM 46.4 °F 46.4 °F 100% 30.04 in 4.0 mi Calm Calm - N/A   Overcast
10:53 AM 50.0 °F 46.0 °F 86% 30.04 in 6.0 mi Calm Calm - N/A   Overcast
11:09 AM 51.8 °F 46.4 °F 82% 30.03 in 8.0 mi Variable 3.5 mph - N/A   Overcast
11:53 AM 54.0 °F 46.9 °F 77% 30.02 in 6.0 mi Variable 3.5 mph - N/A   Haze
12:14 PM 55.4 °F 46.4 °F 72% 30.01 in 7.0 mi Variable 3.5 mph - N/A   Scattered Clouds
12:53 PM 59.0 °F 48.0 °F 67% 30.00 in 7.0 mi Calm Calm - N/A   Clear
1:53 PM 63.0 °F 48.9 °F 60% 29.97 in 10.0 mi Variable 4.6 mph - N/A   Clear
2:53 PM 63.0 °F 50.0 °F 63% 29.94 in 10.0 mi ESE 5.8 mph - N/A   Clear
3:53 PM 62.1 °F 50.0 °F 65% 29.93 in 10.0 mi East 6.9 mph - N/A   Clear
4:53 PM 64.0 °F 48.9 °F 58% 29.93 in 10.0 mi North 5.8 mph - N/A   Clear
5:53 PM 61.0 °F 46.9 °F 60% 29.92 in 10.0 mi NNW 8.1 mph - N/A   Clear
6:53 PM 57.0 °F 46.0 °F 67% 29.93 in 10.0 mi NNW 9.2 mph - N/A   Clear
7:53 PM 53.1 °F 46.0 °F 77% 29.94 in 10.0 mi NNW 4.6 mph - N/A   Clear
8:53 PM 55.9 °F 46.9 °F 72% 29.94 in 10.0 mi NW 5.8 mph - N/A   Clear
9:53 PM 54.0 °F 46.0 °F 75% 29.95 in 10.0 mi NW 4.6 mph - N/A   Clear
10:53 PM 53.1 °F 46.0 °F 77% 29.95 in 10.0 mi NW 6.9 mph - N/A   Clear
11:53 PM 52.0 °F 45.0 °F 77% 29.95 in 10.0 mi NW 4.6 mph - N/A   Clear